TimeMST,TemperatureF,Dew PointF,Humidity,Sea Level PressureIn,VisibilityMPH,Wind Direction,Wind SpeedMPH,Gust SpeedMPH,PrecipitationIn,Events,Conditions,WindDirDegrees,DateUTC
12:53 AM,32.0,10.9,42,29.75,10.0,SSW,11.5,-,N/A,,Clear,200,2012-12-12 07:53:00
1:34 AM,35.6,10.4,35,29.72,10.0,SW,18.4,32.2,N/A,,Clear,230,2012-12-12 08:34:00
1:53 AM,35.1,10.9,37,29.73,10.0,WSW,10.4,24.2,N/A,,Clear,240,2012-12-12 08:53:00
2:53 AM,33.1,12.0,42,29.73,10.0,SW,10.4,-,N/A,,Clear,220,2012-12-12 09:53:00
3:53 AM,37.9,10.0,32,29.71,10.0,West,29.9,47.2,N/A,,Clear,270,2012-12-12 10:53:00
4:53 AM,37.0,10.0,33,29.74,10.0,West,23.0,32.2,N/A,,Clear,260,2012-12-12 11:53:00
5:53 AM,33.1,10.0,38,29.77,10.0,West,12.7,-,N/A,,Clear,280,2012-12-12 12:53:00
6:53 AM,28.0,10.0,47,29.81,10.0,WSW,5.8,-,N/A,,Clear,240,2012-12-12 13:53:00
7:53 AM,28.0,10.0,47,29.81,10.0,SSW,9.2,-,N/A,,Clear,210,2012-12-12 14:53:00
8:53 AM,30.9,9.0,40,29.81,10.0,SSW,4.6,-,N/A,,Clear,200,2012-12-12 15:53:00
9:53 AM,39.9,10.9,31,29.77,10.0,WSW,11.5,-,N/A,,Clear,240,2012-12-12 16:53:00
10:53 AM,48.0,8.1,20,29.70,10.0,SSW,17.3,23.0,N/A,,Clear,210,2012-12-12 17:53:00
11:53 AM,48.9,7.0,18,29.67,10.0,South,17.3,20.7,N/A,,Clear,190,2012-12-12 18:53:00
12:53 PM,48.0,7.0,19,29.68,10.0,South,13.8,-,N/A,,Clear,180,2012-12-12 19:53:00
1:44 PM,51.8,8.6,18,29.73,10.0,West,27.6,33.4,N/A,,Clear,270,2012-12-12 20:44:00
1:53 PM,50.0,9.0,19,29.67,10.0,West,31.1,38.0,N/A,,Clear,280,2012-12-12 20:53:00
2:53 PM,46.9,10.9,23,29.70,10.0,West,28.8,44.9,N/A,,Clear,260,2012-12-12 21:53:00
3:53 PM,45.0,12.0,26,29.70,10.0,West,31.1,39.1,N/A,,Clear,280,2012-12-12 22:53:00
4:53 PM,41.0,12.9,32,29.75,10.0,WNW,20.7,28.8,N/A,,Clear,290,2012-12-12 23:53:00
5:53 PM,39.0,12.9,34,29.80,10.0,West,24.2,36.8,N/A,,Clear,280,2012-12-13 00:53:00
6:53 PM,39.0,12.9,34,29.83,10.0,West,29.9,40.3,N/A,,Clear,270,2012-12-13 01:53:00
7:53 PM,36.0,12.9,39,29.86,10.0,West,25.3,34.5,N/A,,Clear,280,2012-12-13 02:53:00
8:53 PM,37.0,12.9,37,29.86,10.0,West,19.6,25.3,N/A,,Clear,280,2012-12-13 03:53:00
9:53 PM,35.1,12.9,40,29.84,10.0,NE,12.7,18.4,N/A,,Clear,50,2012-12-13 04:53:00
10:53 PM,35.1,12.0,39,29.81,10.0,WSW,12.7,-,N/A,,Clear,250,2012-12-13 05:53:00
11:53 PM,34.0,10.9,38,29.82,10.0,SW,8.1,-,N/A,,Clear,230,2012-12-13 06:53:00